STARLINK-34259, 65368

Orbit data source: Space-Track

STARLINK-34259, 65368 is a payload satellite owned by SpaceX/Seattle (US) in LEO that was launched on Thu, 28 Aug 2025 UTC via an FALCON 9 launch vehicle from the Air Force Eastern Test Range (AFETR). Payload-class satellites include a variety of spacecraft equipped with specific instruments for various scientific and technological missions. These include communications satellites like Starlink; space stations such as the ISS; scientific satellites like the Hubble; Earth observation satellites from companies like Planet Labs, Umbra, and HawkEye 360; GPS; miniature CubeSats for education and research; and military/defense satellites.

Loading next visibility...
Identifier
65368, 2025-190T
Orbit
LEO
Country
Flag of USUS
Related business
Manufacturer
SpaceX/Seattle
Mission
Operational Commercial Communications
Bus & Motor
STARLINK V2MO, Unknown motor
Mass
575 kg wet, ~530 kg dry
Launch date (UTC)
2025-08-28 (10 months ago)
Launch vehicle
FALCON 9
Launch site
Air Force Eastern Test Range (AFETR)
Object type
Payload
Rocket body
Debris
Shape & HBR
Box + 2 Pan, 17.7 m
Radar Cross Section
36.964 m², Large (>1 m²)

Expand to show TLE details & history
Last TLE update: 23 hours ago

TLE from 23 hours ago
0 STARLINK-34259
1 65368U 25190T   26170.88678486  .00012309  00000-0  37478-3 0  9993
2 65368  53.1599  52.6688 0001436  99.0363 261.0802 15.34405983 45416
Epoch: 2026-06-19T21:16Z
TLE epoch observation values (Epoch: 2026-06-19T21:16:58.211Z)
Latitude
-0.00005°
Longitude
-174.68311°
Altitude
463.739 km
Speed
7.636 km/s
True Right ascension
03h 30m 40s
True Declination
0° 00' 00"
Sunlit
Object was in daylight at epoch
Visualization orbit readout
Latitude
Unknown
Longitude
Unknown
Altitude
Unknown
Speed
Unknown
Apparent Right ascension
Unknown
Apparent Declination
Unknown
Sunlit
N/A
Visualization observer readout
Local Sidereal Time
07:21:00
Azimuth
Unknown
Elevation
Unknown
Doppler factor
Unknown
Orbital elements
Apogee altitude
463.925 km
Perigee altitude
461.96 km
Semi-major axis
6,841.079 km
Eccentricity
0.00014
Inclination
53.1599°
RAAN
52.6688°
Arg. of periapsis
99.0363°
True anomaly
261.06394°
Mean anomaly
261.0802°
Eccentric anomaly
261.07207°
Mean motion
3.8358 °/min
Orbital period
93.85 mins
BSTAR
0.00037478
Loading maneuver chart data...
Computing Atmospheric mass density...
Loading historical data...
Loading historical data...
Loading historical data...
Loading historical data...
Loading historical data...
Loading historical data...
Loading historical data...

Documentation

Showing up to 5 results
|